Year,Month,Day,Hour,Minute,Value (Times are PST for windspeed in km/hr)
2016,10,14,00,00,6.80
2016,10,14,00,01,6.10
2016,10,14,00,02,12.40
2016,10,14,00,03,12.00
2016,10,14,00,04,9.10
2016,10,14,00,05,12.80
2016,10,14,00,06,6.30
2016,10,14,00,07,11.60
2016,10,14,00,08,11.00
2016,10,14,00,09,12.90
2016,10,14,00,10,9.80
2016,10,14,00,11,7.20
2016,10,14,00,12,17.30
2016,10,14,00,13,8.00
2016,10,14,00,14,9.10
2016,10,14,00,15,5.30
2016,10,14,00,16,8.00
2016,10,14,00,17,11.50
2016,10,14,00,18,9.90
2016,10,14,00,19,12.90
2016,10,14,00,20,8.20
2016,10,14,00,21,8.30
2016,10,14,00,22,12.00
2016,10,14,00,23,9.00
2016,10,14,00,24,4.00
2016,10,14,00,25,9.40
2016,10,14,00,26,11.60
2016,10,14,00,27,8.20
2016,10,14,00,28,15.40
2016,10,14,00,29,9.60
2016,10,14,00,30,15.30
2016,10,14,00,31,10.30
2016,10,14,00,32,13.60
2016,10,14,00,33,12.80
2016,10,14,00,34,8.80
2016,10,14,00,35,9.90
2016,10,14,00,36,11.60
2016,10,14,00,37,13.70
2016,10,14,00,38,16.10
2016,10,14,00,39,24.10
2016,10,14,00,40,22.20
2016,10,14,00,41,8.60
2016,10,14,00,42,7.40
2016,10,14,00,43,17.80
2016,10,14,00,44,21.50
2016,10,14,00,45,25.50
2016,10,14,00,46,17.40
2016,10,14,00,47,15.60
2016,10,14,00,48,18.10
2016,10,14,00,49,24.80
2016,10,14,00,50,15.10
2016,10,14,00,51,28.20
2016,10,14,00,52,33.10
2016,10,14,00,53,20.60
2016,10,14,00,54,17.80
2016,10,14,00,55,18.30
2016,10,14,00,56,12.20
2016,10,14,00,57,18.50
2016,10,14,00,58,9.90
2016,10,14,00,59,8.40
2016,10,14,01,00,13.80
2016,10,14,01,01,7.50
2016,10,14,01,02,9.60
2016,10,14,01,03,17.80
2016,10,14,01,04,9.70
2016,10,14,01,05,9.30
2016,10,14,01,06,8.70
2016,10,14,01,07,9.30
2016,10,14,01,08,10.10
2016,10,14,01,09,6.10
2016,10,14,01,10,5.20
2016,10,14,01,11,10.80
2016,10,14,01,12,7.20
2016,10,14,01,13,7.20
2016,10,14,01,14,9.80
2016,10,14,01,15,14.60
2016,10,14,01,16,24.90
2016,10,14,01,17,19.50
2016,10,14,01,18,18.80
2016,10,14,01,19,15.20
2016,10,14,01,20,17.00
2016,10,14,01,21,10.30
2016,10,14,01,22,16.90
2016,10,14,01,23,16.30
2016,10,14,01,24,14.30
2016,10,14,01,25,13.90
2016,10,14,01,26,13.60
2016,10,14,01,27,36.10
2016,10,14,01,28,29.40
2016,10,14,01,29,23.80
2016,10,14,01,30,25.90
2016,10,14,01,31,31.00
2016,10,14,01,32,30.10
2016,10,14,01,33,26.90
2016,10,14,01,34,38.60
2016,10,14,01,35,36.40
2016,10,14,01,36,25.30
2016,10,14,01,37,20.10
2016,10,14,01,38,19.60
2016,10,14,01,39,20.40
2016,10,14,01,40,34.70
2016,10,14,01,41,35.10
2016,10,14,01,42,17.10
2016,10,14,01,43,15.00
2016,10,14,01,44,9.00
2016,10,14,01,45,2.00
2016,10,14,01,46,3.50
2016,10,14,01,47,1.50
2016,10,14,01,48,3.80
2016,10,14,01,49,5.00
2016,10,14,01,50,5.00
2016,10,14,01,51,2.10
2016,10,14,01,52,8.40
2016,10,14,01,53,11.40
2016,10,14,01,54,10.90
2016,10,14,01,55,7.30
2016,10,14,01,56,7.80
2016,10,14,01,57,5.20
2016,10,14,01,58,4.00
2016,10,14,01,59,2.90
2016,10,14,02,00,12.50
2016,10,14,02,01,7.40
2016,10,14,02,02,12.40
2016,10,14,02,03,9.00
2016,10,14,02,04,7.60
2016,10,14,02,05,4.40
2016,10,14,02,06,2.80
2016,10,14,02,07,1.00
2016,10,14,02,08,0.10
2016,10,14,02,09,2.50
2016,10,14,02,10,6.80
2016,10,14,02,11,10.10
2016,10,14,02,12,10.50
2016,10,14,02,13,9.30
2016,10,14,02,14,12.40
2016,10,14,02,15,7.60
2016,10,14,02,16,7.50
2016,10,14,02,17,5.90
2016,10,14,02,18,1.80
2016,10,14,02,19,8.30
2016,10,14,02,20,5.20
2016,10,14,02,21,5.60
2016,10,14,02,22,3.50
2016,10,14,02,23,2.90
2016,10,14,02,24,0.30
2016,10,14,02,25,4.50
2016,10,14,02,26,6.30
2016,10,14,02,27,3.80
2016,10,14,02,28,0.70
2016,10,14,02,29,2.70
2016,10,14,02,30,3.00
2016,10,14,02,31,4.70
2016,10,14,02,32,10.00
2016,10,14,02,33,7.50
2016,10,14,02,34,2.60
2016,10,14,02,35,3.90
2016,10,14,02,36,0.90
2016,10,14,02,37,2.80
2016,10,14,02,38,2.00
2016,10,14,02,39,1.70
2016,10,14,02,40,3.80
2016,10,14,02,41,5.50
2016,10,14,02,42,6.50
2016,10,14,02,43,4.40
2016,10,14,02,44,2.30
2016,10,14,02,45,0.30
2016,10,14,02,46,1.20
2016,10,14,02,47,3.50
2016,10,14,02,48,2.60
2016,10,14,02,49,2.20
2016,10,14,02,50,3.80
2016,10,14,02,51,5.60
2016,10,14,02,52,7.20
2016,10,14,02,53,6.30
2016,10,14,02,54,2.00
2016,10,14,02,55,0.40
2016,10,14,02,56,3.00
2016,10,14,02,57,0.80
2016,10,14,02,58,1.10
2016,10,14,02,59,5.00
2016,10,14,03,00,12.40
2016,10,14,03,01,5.50
2016,10,14,03,02,0.60
2016,10,14,03,03,0.80
2016,10,14,03,04,1.40
2016,10,14,03,05,3.10
2016,10,14,03,06,1.70
2016,10,14,03,07,1.00
2016,10,14,03,08,3.00
2016,10,14,03,09,2.30
2016,10,14,03,10,0.60
2016,10,14,03,11,0.40
2016,10,14,03,12,0.00
2016,10,14,03,13,0.00
2016,10,14,03,14,1.00
2016,10,14,03,15,2.00
2016,10,14,03,16,1.80
2016,10,14,03,17,0.10
2016,10,14,03,18,0.00
2016,10,14,03,19,0.00
2016,10,14,03,20,0.00
2016,10,14,03,21,2.40
2016,10,14,03,22,3.10
2016,10,14,03,23,2.80
2016,10,14,03,24,0.20
2016,10,14,03,25,0.50
2016,10,14,03,26,2.40
2016,10,14,03,27,5.00
2016,10,14,03,28,3.50
2016,10,14,03,29,0.40
2016,10,14,03,30,0.40
2016,10,14,03,31,0.00
2016,10,14,03,32,2.10
2016,10,14,03,33,3.60
2016,10,14,03,34,4.50
2016,10,14,03,35,3.80
2016,10,14,03,36,2.70
2016,10,14,03,37,1.70
2016,10,14,03,38,0.00
2016,10,14,03,39,0.00
2016,10,14,03,40,0.00
2016,10,14,03,41,1.00
2016,10,14,03,42,0.70
2016,10,14,03,43,0.10
2016,10,14,03,44,3.40
2016,10,14,03,45,2.80
2016,10,14,03,46,3.80
2016,10,14,03,47,2.10
2016,10,14,03,48,2.00
2016,10,14,03,49,1.20
2016,10,14,03,50,0.00
2016,10,14,03,51,0.00
2016,10,14,03,52,0.00
2016,10,14,03,53,1.70
2016,10,14,03,54,3.00
2016,10,14,03,55,0.70
2016,10,14,03,56,0.40
2016,10,14,03,57,0.10
2016,10,14,03,58,0.60
2016,10,14,03,59,3.10
2016,10,14,04,00,2.20
2016,10,14,04,01,0.80
2016,10,14,04,02,1.60
2016,10,14,04,03,2.10
2016,10,14,04,04,0.70
2016,10,14,04,05,0.00
2016,10,14,04,06,0.70
2016,10,14,04,07,3.40
2016,10,14,04,08,3.80
2016,10,14,04,09,3.90
2016,10,14,04,10,3.10
2016,10,14,04,11,0.90
2016,10,14,04,12,1.40
2016,10,14,04,13,3.20
2016,10,14,04,14,0.50
2016,10,14,04,15,1.50
2016,10,14,04,16,1.50
2016,10,14,04,17,2.10
2016,10,14,04,18,0.40
2016,10,14,04,19,0.40
2016,10,14,04,20,2.10
2016,10,14,04,21,2.30
2016,10,14,04,22,0.40
2016,10,14,04,23,1.90
2016,10,14,04,24,2.60
2016,10,14,04,25,1.90
2016,10,14,04,26,1.00
2016,10,14,04,27,1.20
2016,10,14,04,28,1.00
2016,10,14,04,29,0.00
2016,10,14,04,30,0.30
2016,10,14,04,31,0.60
2016,10,14,04,32,0.40
2016,10,14,04,33,0.30
2016,10,14,04,34,0.10
2016,10,14,04,35,0.50
2016,10,14,04,36,0.20
2016,10,14,04,37,1.80
2016,10,14,04,38,1.00
2016,10,14,04,39,0.50
2016,10,14,04,40,3.50
2016,10,14,04,41,5.90
2016,10,14,04,42,4.50
2016,10,14,04,43,3.90
2016,10,14,04,44,2.40
2016,10,14,04,45,0.60
2016,10,14,04,46,2.80
2016,10,14,04,47,2.60
2016,10,14,04,48,1.30
2016,10,14,04,49,2.80
2016,10,14,04,50,3.10
2016,10,14,04,51,0.50
2016,10,14,04,52,0.00
2016,10,14,04,53,0.10
2016,10,14,04,54,0.40
2016,10,14,04,55,0.00
2016,10,14,04,56,0.10
2016,10,14,04,57,0.40
2016,10,14,04,58,0.00
2016,10,14,04,59,0.00
2016,10,14,05,00,0.20
2016,10,14,05,01,0.40
2016,10,14,05,02,0.00
2016,10,14,05,03,0.10
2016,10,14,05,04,0.00
2016,10,14,05,05,0.00
2016,10,14,05,06,0.00
2016,10,14,05,07,1.20
2016,10,14,05,08,1.20
2016,10,14,05,09,3.00
2016,10,14,05,10,3.60
2016,10,14,05,11,1.80
2016,10,14,05,12,3.70
2016,10,14,05,13,2.50
2016,10,14,05,14,2.80
2016,10,14,05,15,2.20
2016,10,14,05,16,3.30
2016,10,14,05,17,2.10
2016,10,14,05,18,1.40
2016,10,14,05,19,4.40
2016,10,14,05,20,6.70
2016,10,14,05,21,3.60
2016,10,14,05,22,3.80
2016,10,14,05,23,2.40
2016,10,14,05,24,0.40
2016,10,14,05,25,0.00
2016,10,14,05,26,1.90
2016,10,14,05,27,5.20
2016,10,14,05,28,3.40
2016,10,14,05,29,1.60
2016,10,14,05,30,3.40
2016,10,14,05,31,3.30
2016,10,14,05,32,3.40
2016,10,14,05,33,7.30
2016,10,14,05,34,4.80
2016,10,14,05,35,2.00
2016,10,14,05,36,4.30
2016,10,14,05,37,4.50
2016,10,14,05,38,2.70
2016,10,14,05,39,1.70
2016,10,14,05,40,1.50
2016,10,14,05,41,0.10
2016,10,14,05,42,0.30
2016,10,14,05,43,0.10
2016,10,14,05,44,1.30
2016,10,14,05,45,3.50
2016,10,14,05,46,3.30
2016,10,14,05,47,2.50
2016,10,14,05,48,1.90
2016,10,14,05,49,3.60
2016,10,14,05,50,3.90
2016,10,14,05,51,4.70
2016,10,14,05,52,4.30
2016,10,14,05,53,4.40
2016,10,14,05,54,4.30
2016,10,14,05,55,3.60
2016,10,14,05,56,1.50
2016,10,14,05,57,1.20
2016,10,14,05,58,2.20
2016,10,14,05,59,2.90
2016,10,14,06,00,2.00
2016,10,14,06,01,1.60
2016,10,14,06,02,0.20
2016,10,14,06,03,0.00
2016,10,14,06,04,0.90
2016,10,14,06,05,2.30
2016,10,14,06,06,1.60
2016,10,14,06,07,1.30
2016,10,14,06,08,0.70
2016,10,14,06,09,0.40
2016,10,14,06,10,0.00
2016,10,14,06,11,0.20
2016,10,14,06,12,1.40
2016,10,14,06,13,1.70
2016,10,14,06,14,2.60
2016,10,14,06,15,2.50
2016,10,14,06,16,2.20
2016,10,14,06,17,0.70
2016,10,14,06,18,0.00
2016,10,14,06,19,1.80
2016,10,14,06,20,5.20
2016,10,14,06,21,3.30
2016,10,14,06,22,1.50
2016,10,14,06,23,1.10
2016,10,14,06,24,0.00
2016,10,14,06,25,0.00
2016,10,14,06,26,1.00
2016,10,14,06,27,3.00
2016,10,14,06,28,2.30
2016,10,14,06,29,0.50
2016,10,14,06,30,0.60
2016,10,14,06,31,0.60
2016,10,14,06,32,0.30
2016,10,14,06,33,0.00
2016,10,14,06,34,0.40
2016,10,14,06,35,2.60
2016,10,14,06,36,3.50
2016,10,14,06,37,2.70
2016,10,14,06,38,1.50
2016,10,14,06,39,0.30
2016,10,14,06,40,0.00
2016,10,14,06,41,0.00
2016,10,14,06,42,0.10
2016,10,14,06,43,0.80
2016,10,14,06,44,2.40
2016,10,14,06,45,2.30
2016,10,14,06,46,1.50
2016,10,14,06,47,0.00
2016,10,14,06,48,0.00
2016,10,14,06,49,0.10
2016,10,14,06,50,1.30
2016,10,14,06,51,1.70
2016,10,14,06,52,0.70
2016,10,14,06,53,0.00
2016,10,14,06,54,0.00
2016,10,14,06,55,0.00
2016,10,14,06,56,0.00
2016,10,14,06,57,0.00
2016,10,14,06,58,0.00
2016,10,14,06,59,0.00
2016,10,14,07,00,0.00
2016,10,14,07,01,0.00
2016,10,14,07,02,0.60
2016,10,14,07,03,1.40
2016,10,14,07,04,1.70
2016,10,14,07,05,0.80
2016,10,14,07,06,0.00
2016,10,14,07,07,0.10
2016,10,14,07,08,2.10
2016,10,14,07,09,2.40
2016,10,14,07,10,2.10
2016,10,14,07,11,3.20
2016,10,14,07,12,2.70
2016,10,14,07,13,2.80
2016,10,14,07,14,1.90
2016,10,14,07,15,2.30
2016,10,14,07,16,1.70
2016,10,14,07,17,0.70
2016,10,14,07,18,0.20
2016,10,14,07,19,0.00
2016,10,14,07,20,0.00
2016,10,14,07,21,0.00
2016,10,14,07,22,0.10
2016,10,14,07,23,0.20
2016,10,14,07,24,0.00
2016,10,14,07,25,0.10
2016,10,14,07,26,0.90
2016,10,14,07,27,1.50
2016,10,14,07,28,0.80
2016,10,14,07,29,0.10
2016,10,14,07,30,0.20
2016,10,14,07,31,0.40
2016,10,14,07,32,1.00
2016,10,14,07,33,0.80
2016,10,14,07,34,0.10
2016,10,14,07,35,0.00
2016,10,14,07,36,0.00
2016,10,14,07,37,0.40
2016,10,14,07,38,0.40
2016,10,14,07,39,0.00
2016,10,14,07,40,0.00
2016,10,14,07,41,0.00
2016,10,14,07,42,1.10
2016,10,14,07,43,1.30
2016,10,14,07,44,0.10
2016,10,14,07,45,0.00
2016,10,14,07,46,0.00
2016,10,14,07,47,0.00
2016,10,14,07,48,0.00
2016,10,14,07,49,0.00
2016,10,14,07,50,0.00
2016,10,14,07,51,0.40
2016,10,14,07,52,1.50
2016,10,14,07,53,2.70
2016,10,14,07,54,2.80
2016,10,14,07,55,1.60
2016,10,14,07,56,0.30
2016,10,14,07,57,0.90
2016,10,14,07,58,3.00
2016,10,14,07,59,1.50
2016,10,14,08,00,0.20
2016,10,14,08,01,0.00
2016,10,14,08,02,0.00
2016,10,14,08,03,0.10
2016,10,14,08,04,0.00
2016,10,14,08,05,0.10
2016,10,14,08,06,2.00
2016,10,14,08,07,2.10
2016,10,14,08,08,3.20
2016,10,14,08,09,2.50
2016,10,14,08,10,1.10
2016,10,14,08,11,1.20
2016,10,14,08,12,1.50
2016,10,14,08,13,1.40
2016,10,14,08,14,1.50
2016,10,14,08,15,0.70
2016,10,14,08,16,0.20
2016,10,14,08,17,0.00
2016,10,14,08,18,0.00
2016,10,14,08,19,0.00
2016,10,14,08,20,0.00
2016,10,14,08,21,0.00
2016,10,14,08,22,0.20
2016,10,14,08,23,0.90
2016,10,14,08,24,1.80
2016,10,14,08,25,3.20
2016,10,14,08,26,3.70
2016,10,14,08,27,2.80
2016,10,14,08,28,2.80
2016,10,14,08,29,2.40
2016,10,14,08,30,1.30
2016,10,14,08,31,0.70
2016,10,14,08,32,0.90
2016,10,14,08,33,0.30
2016,10,14,08,34,0.00
2016,10,14,08,35,0.00
2016,10,14,08,36,0.00
2016,10,14,08,37,0.00
2016,10,14,08,38,0.00
2016,10,14,08,39,0.00
2016,10,14,08,40,1.60
2016,10,14,08,41,2.80
2016,10,14,08,42,3.90
2016,10,14,08,43,3.00
2016,10,14,08,44,1.80
2016,10,14,08,45,0.00
2016,10,14,08,46,0.00
2016,10,14,08,47,0.10
2016,10,14,08,48,0.20
2016,10,14,08,49,0.80
2016,10,14,08,50,1.80
2016,10,14,08,51,2.00
2016,10,14,08,52,0.10
2016,10,14,08,53,0.30
2016,10,14,08,54,1.60
2016,10,14,08,55,2.30
2016,10,14,08,56,2.90
2016,10,14,08,57,1.90
2016,10,14,08,58,0.70
2016,10,14,08,59,4.10
2016,10,14,09,00,2.00
2016,10,14,09,01,3.20
2016,10,14,09,02,2.80
2016,10,14,09,03,4.40
2016,10,14,09,04,4.70
2016,10,14,09,05,4.10
2016,10,14,09,06,2.10
2016,10,14,09,07,0.70
2016,10,14,09,08,1.30
2016,10,14,09,09,4.20
2016,10,14,09,10,3.40
2016,10,14,09,11,1.30
2016,10,14,09,12,0.00
2016,10,14,09,13,0.50
2016,10,14,09,14,0.40
2016,10,14,09,15,0.00
2016,10,14,09,16,0.40
2016,10,14,09,17,0.20
2016,10,14,09,18,0.10
2016,10,14,09,19,2.90
2016,10,14,09,20,0.40
2016,10,14,09,21,0.10
2016,10,14,09,22,0.40
2016,10,14,09,23,2.40
2016,10,14,09,24,1.00
2016,10,14,09,25,0.40
2016,10,14,09,26,0.10
2016,10,14,09,27,0.00
2016,10,14,09,28,0.40
2016,10,14,09,29,0.00
2016,10,14,09,30,0.10
2016,10,14,09,31,0.60
2016,10,14,09,32,1.10
2016,10,14,09,33,0.90
2016,10,14,09,34,1.20
2016,10,14,09,35,1.50
2016,10,14,09,36,0.80
2016,10,14,09,37,0.10
2016,10,14,09,38,0.20
2016,10,14,09,39,0.10
2016,10,14,09,40,0.00
2016,10,14,09,41,0.10
2016,10,14,09,42,0.00
2016,10,14,09,43,0.10
2016,10,14,09,44,0.50
2016,10,14,09,45,1.30
2016,10,14,09,46,0.40
2016,10,14,09,47,1.10
2016,10,14,09,48,0.40
2016,10,14,09,49,1.30
2016,10,14,09,50,0.90
2016,10,14,09,51,4.00
2016,10,14,09,52,4.30
2016,10,14,09,53,3.90
2016,10,14,09,54,2.80
2016,10,14,09,55,2.80
2016,10,14,09,56,1.70
2016,10,14,09,57,2.60
2016,10,14,09,58,3.40
2016,10,14,09,59,2.00
2016,10,14,10,00,0.70
2016,10,14,10,01,1.30
2016,10,14,10,02,1.90
2016,10,14,10,03,2.80
2016,10,14,10,04,2.70
2016,10,14,10,05,3.10
2016,10,14,10,06,3.20
2016,10,14,10,07,1.60
2016,10,14,10,08,1.20
2016,10,14,10,09,3.10
2016,10,14,10,10,4.50
2016,10,14,10,11,2.60
2016,10,14,10,12,1.00
2016,10,14,10,13,0.10
2016,10,14,10,14,0.90
2016,10,14,10,15,1.40
2016,10,14,10,16,2.10
2016,10,14,10,17,3.80
2016,10,14,10,18,3.10
2016,10,14,10,19,3.40
2016,10,14,10,20,0.50
2016,10,14,10,21,0.30
2016,10,14,10,22,0.30
2016,10,14,10,23,1.80
2016,10,14,10,24,1.20
2016,10,14,10,25,1.50
2016,10,14,10,26,0.80
2016,10,14,10,27,2.50
2016,10,14,10,28,5.40
2016,10,14,10,29,4.40
2016,10,14,10,30,5.40
2016,10,14,10,31,7.50
2016,10,14,10,32,4.60
2016,10,14,10,33,2.40
2016,10,14,10,34,4.20
2016,10,14,10,35,3.90
2016,10,14,10,36,2.90
2016,10,14,10,37,3.00
2016,10,14,10,38,5.20
2016,10,14,10,39,5.60
2016,10,14,10,40,4.10
2016,10,14,10,41,3.60
2016,10,14,10,42,3.80
2016,10,14,10,43,2.50
2016,10,14,10,44,2.10
2016,10,14,10,45,3.60
2016,10,14,10,46,1.50
2016,10,14,10,47,6.00
2016,10,14,10,48,8.70
2016,10,14,10,49,9.30
2016,10,14,10,50,7.70
2016,10,14,10,51,6.70
2016,10,14,10,52,5.10
2016,10,14,10,53,3.80
2016,10,14,10,54,5.10
2016,10,14,10,55,5.90
2016,10,14,10,56,0.80
2016,10,14,10,57,3.50
2016,10,14,10,58,4.50
2016,10,14,10,59,2.40
2016,10,14,11,00,2.00
2016,10,14,11,01,5.60
2016,10,14,11,02,9.20
2016,10,14,11,03,6.80
2016,10,14,11,04,5.00
2016,10,14,11,05,7.90
2016,10,14,11,06,11.90
2016,10,14,11,07,8.20
2016,10,14,11,08,13.70
2016,10,14,11,09,19.40
2016,10,14,11,10,17.90
2016,10,14,11,11,13.50
2016,10,14,11,12,11.00
2016,10,14,11,13,4.50
2016,10,14,11,14,7.70
2016,10,14,11,15,10.20
2016,10,14,11,16,9.20
2016,10,14,11,17,7.20
2016,10,14,11,18,4.50
2016,10,14,11,19,4.60
2016,10,14,11,20,5.50
2016,10,14,11,21,6.70
2016,10,14,11,22,10.40
2016,10,14,11,23,11.90
2016,10,14,11,24,10.80
2016,10,14,11,25,10.40
2016,10,14,11,26,7.60
2016,10,14,11,27,2.00
2016,10,14,11,28,11.20
2016,10,14,11,29,13.40
2016,10,14,11,30,20.30
2016,10,14,11,31,15.70
2016,10,14,11,32,12.90
2016,10,14,11,33,7.00
2016,10,14,11,34,8.40
2016,10,14,11,35,6.90
2016,10,14,11,36,9.50
2016,10,14,11,37,9.90
2016,10,14,11,38,10.50
2016,10,14,11,39,11.10
2016,10,14,11,40,15.10
2016,10,14,11,41,8.60
2016,10,14,11,42,6.00
2016,10,14,11,43,5.60
2016,10,14,11,44,6.30
2016,10,14,11,45,3.40
2016,10,14,11,46,6.60
2016,10,14,11,47,4.90
2016,10,14,11,48,3.80
2016,10,14,11,49,3.00
2016,10,14,11,50,4.10
2016,10,14,11,51,4.40
2016,10,14,11,52,2.10
2016,10,14,11,53,3.40
2016,10,14,11,54,4.10
2016,10,14,11,55,0.60
2016,10,14,11,56,1.70
2016,10,14,11,57,2.10
2016,10,14,11,58,4.40
2016,10,14,11,59,5.60
2016,10,14,12,00,4.30
2016,10,14,12,01,6.20
2016,10,14,12,02,2.20
2016,10,14,12,03,4.20
2016,10,14,12,04,8.00
2016,10,14,12,05,5.70
2016,10,14,12,06,5.00
2016,10,14,12,07,3.50
2016,10,14,12,08,7.30
2016,10,14,12,09,8.40
2016,10,14,12,10,7.20
2016,10,14,12,11,5.90
2016,10,14,12,12,4.70
2016,10,14,12,13,4.00
2016,10,14,12,14,5.90
2016,10,14,12,15,6.80
2016,10,14,12,16,6.70
2016,10,14,12,17,6.80
2016,10,14,12,18,8.20
2016,10,14,12,19,10.40
2016,10,14,12,20,8.60
2016,10,14,12,21,9.20
2016,10,14,12,22,10.50
2016,10,14,12,23,9.70
2016,10,14,12,24,8.40
2016,10,14,12,25,10.20
2016,10,14,12,26,15.20
2016,10,14,12,27,15.60
2016,10,14,12,28,18.60
2016,10,14,12,29,17.00
2016,10,14,12,30,9.00
2016,10,14,12,31,11.80
2016,10,14,12,32,12.30
2016,10,14,12,33,7.10
2016,10,14,12,34,8.60
2016,10,14,12,35,14.00
2016,10,14,12,36,13.70
2016,10,14,12,37,14.30
2016,10,14,12,38,8.30
2016,10,14,12,39,11.20
2016,10,14,12,40,14.30
2016,10,14,12,41,8.30
2016,10,14,12,42,2.90
2016,10,14,12,43,4.50
2016,10,14,12,44,2.40
2016,10,14,12,45,1.80
2016,10,14,12,46,1.10
2016,10,14,12,47,4.00
2016,10,14,12,48,2.00
2016,10,14,12,49,2.30
2016,10,14,12,50,5.30
2016,10,14,12,51,16.50
2016,10,14,12,52,12.30
2016,10,14,12,53,10.00
2016,10,14,12,54,13.20
2016,10,14,12,55,5.70
2016,10,14,12,56,4.90
2016,10,14,12,57,8.10
2016,10,14,12,58,9.90
2016,10,14,12,59,8.60
2016,10,14,13,00,8.20
2016,10,14,13,01,11.90
2016,10,14,13,02,10.50
2016,10,14,13,03,13.70
2016,10,14,13,04,22.40
2016,10,14,13,05,20.70
2016,10,14,13,06,13.80
2016,10,14,13,07,16.70
2016,10,14,13,08,16.80
2016,10,14,13,09,15.10
2016,10,14,13,10,13.80
2016,10,14,13,11,10.10
2016,10,14,13,12,9.80
2016,10,14,13,13,6.90
2016,10,14,13,14,17.10
2016,10,14,13,15,13.80
2016,10,14,13,16,6.50
2016,10,14,13,17,7.20
2016,10,14,13,18,8.70
2016,10,14,13,19,8.30
2016,10,14,13,20,8.50
2016,10,14,13,21,5.70
2016,10,14,13,22,6.10
2016,10,14,13,23,6.90
2016,10,14,13,24,11.40
2016,10,14,13,25,11.20
2016,10,14,13,26,8.00
2016,10,14,13,27,7.20
2016,10,14,13,28,7.10
2016,10,14,13,29,7.30
2016,10,14,13,30,4.60
2016,10,14,13,31,3.40
2016,10,14,13,32,6.10
2016,10,14,13,33,6.40
2016,10,14,13,34,9.10
2016,10,14,13,35,7.50
2016,10,14,13,36,4.80
2016,10,14,13,37,2.00
2016,10,14,13,38,2.40
2016,10,14,13,39,5.60
2016,10,14,13,40,5.90
2016,10,14,13,41,7.70
2016,10,14,13,42,8.10
2016,10,14,13,43,7.50
2016,10,14,13,44,5.60
2016,10,14,13,45,5.20
2016,10,14,13,46,6.80
2016,10,14,13,47,5.50
2016,10,14,13,48,3.60
2016,10,14,13,49,2.50
2016,10,14,13,50,5.80
2016,10,14,13,51,3.90
2016,10,14,13,52,3.90
2016,10,14,13,53,5.50
2016,10,14,13,54,2.30
2016,10,14,13,55,1.70
2016,10,14,13,56,0.70
2016,10,14,13,57,0.00
2016,10,14,13,58,0.00
2016,10,14,13,59,0.50
2016,10,14,14,00,0.00
2016,10,14,14,01,0.00
2016,10,14,14,02,0.00
2016,10,14,14,03,0.00
2016,10,14,14,04,4.50
2016,10,14,14,05,3.40
2016,10,14,14,06,4.50
2016,10,14,14,07,4.10
2016,10,14,14,08,2.30
2016,10,14,14,09,0.10
2016,10,14,14,10,0.20
2016,10,14,14,11,0.10
2016,10,14,14,12,0.00
2016,10,14,14,13,1.70
2016,10,14,14,14,0.60
2016,10,14,14,15,0.60
2016,10,14,14,16,2.10
2016,10,14,14,17,0.80
2016,10,14,14,18,0.60
2016,10,14,14,19,0.00
2016,10,14,14,20,0.00
2016,10,14,14,21,0.20
2016,10,14,14,22,0.00
2016,10,14,14,23,0.20
2016,10,14,14,24,0.00
2016,10,14,14,25,0.00
2016,10,14,14,26,1.30
2016,10,14,14,27,1.00
2016,10,14,14,28,0.20
2016,10,14,14,29,0.00
2016,10,14,14,30,0.00
2016,10,14,14,31,0.00
2016,10,14,14,32,0.00
2016,10,14,14,33,0.00
2016,10,14,14,34,0.00
2016,10,14,14,35,0.00
2016,10,14,14,36,0.50
2016,10,14,14,37,2.30
2016,10,14,14,38,1.00
2016,10,14,14,39,0.00
2016,10,14,14,40,0.00
2016,10,14,14,41,0.40
2016,10,14,14,42,2.20
2016,10,14,14,43,1.50
2016,10,14,14,44,0.30
2016,10,14,14,45,0.20
2016,10,14,14,46,0.00
2016,10,14,14,47,0.00
2016,10,14,14,48,0.00
2016,10,14,14,49,2.10
2016,10,14,14,50,1.00
2016,10,14,14,51,0.70
2016,10,14,14,52,1.00
2016,10,14,14,53,0.40
2016,10,14,14,54,2.30
2016,10,14,14,55,2.50
2016,10,14,14,56,0.70
2016,10,14,14,57,1.50
2016,10,14,14,58,3.30
2016,10,14,14,59,2.40
2016,10,14,15,00,1.80
2016,10,14,15,01,2.80
2016,10,14,15,02,3.80
2016,10,14,15,03,4.30
2016,10,14,15,04,2.80
2016,10,14,15,05,4.00
2016,10,14,15,06,5.80
2016,10,14,15,07,5.10
2016,10,14,15,08,6.10
2016,10,14,15,09,8.10
2016,10,14,15,10,6.40
2016,10,14,15,11,3.50
2016,10,14,15,12,5.40
2016,10,14,15,13,6.40
2016,10,14,15,14,4.60
2016,10,14,15,15,4.20
2016,10,14,15,16,4.40
2016,10,14,15,17,6.70
2016,10,14,15,18,6.70
2016,10,14,15,19,6.50
2016,10,14,15,20,8.00
2016,10,14,15,21,7.20
2016,10,14,15,22,7.50
2016,10,14,15,23,12.10
2016,10,14,15,24,7.20
2016,10,14,15,25,10.90
2016,10,14,15,26,12.70
2016,10,14,15,27,12.50
2016,10,14,15,28,11.90
2016,10,14,15,29,12.20
2016,10,14,15,30,10.50
2016,10,14,15,31,8.30
2016,10,14,15,32,8.10
2016,10,14,15,33,8.60
2016,10,14,15,34,7.80
2016,10,14,15,35,10.10
2016,10,14,15,36,8.30
2016,10,14,15,37,9.70
2016,10,14,15,38,8.30
2016,10,14,15,39,7.00
2016,10,14,15,40,6.20
2016,10,14,15,41,4.00
2016,10,14,15,42,3.00
2016,10,14,15,43,3.30
2016,10,14,15,44,0.80
2016,10,14,15,45,1.90
2016,10,14,15,46,2.50
2016,10,14,15,47,3.30
2016,10,14,15,48,1.70
2016,10,14,15,49,0.20
2016,10,14,15,50,0.20
2016,10,14,15,51,0.80
2016,10,14,15,52,0.00
2016,10,14,15,53,0.30
2016,10,14,15,54,0.00
2016,10,14,15,55,0.30
2016,10,14,15,56,0.20
2016,10,14,15,57,0.00
2016,10,14,15,58,0.00
2016,10,14,15,59,0.00
2016,10,14,16,00,0.20
2016,10,14,16,01,0.00
2016,10,14,16,02,0.00
2016,10,14,16,03,2.10
2016,10,14,16,04,1.80
2016,10,14,16,05,2.20
2016,10,14,16,06,2.40
2016,10,14,16,07,3.80
2016,10,14,16,08,4.00
2016,10,14,16,09,3.40
2016,10,14,16,10,3.20
2016,10,14,16,11,2.60
2016,10,14,16,12,2.10
2016,10,14,16,13,1.50
2016,10,14,16,14,2.40
2016,10,14,16,15,2.00
2016,10,14,16,16,1.50
2016,10,14,16,17,2.20
2016,10,14,16,18,2.40
2016,10,14,16,19,0.40
2016,10,14,16,20,1.10
2016,10,14,16,21,0.70
2016,10,14,16,22,0.10
2016,10,14,16,23,0.30
2016,10,14,16,24,1.50
2016,10,14,16,25,1.50
2016,10,14,16,26,0.30
2016,10,14,16,27,0.00
2016,10,14,16,28,0.00
2016,10,14,16,29,0.00
2016,10,14,16,30,0.00
2016,10,14,16,31,0.00
2016,10,14,16,32,0.00
2016,10,14,16,33,0.10
2016,10,14,16,34,1.40
2016,10,14,16,35,1.70
2016,10,14,16,36,2.70
2016,10,14,16,37,1.70
2016,10,14,16,38,2.40
2016,10,14,16,39,2.00
2016,10,14,16,40,1.40
2016,10,14,16,41,0.90
2016,10,14,16,42,0.00
2016,10,14,16,43,0.00
2016,10,14,16,44,0.00
2016,10,14,16,45,0.30
2016,10,14,16,46,0.80
2016,10,14,16,47,1.90
2016,10,14,16,48,1.10
2016,10,14,16,49,1.60
2016,10,14,16,50,0.60
2016,10,14,16,51,0.90
2016,10,14,16,52,2.80
2016,10,14,16,53,2.20
2016,10,14,16,54,0.20
2016,10,14,16,55,0.80
2016,10,14,16,56,4.20
2016,10,14,16,57,9.10
2016,10,14,16,58,13.80
2016,10,14,16,59,12.90
2016,10,14,17,00,9.90
2016,10,14,17,01,6.60
2016,10,14,17,02,7.70
2016,10,14,17,03,9.10
2016,10,14,17,04,14.00
2016,10,14,17,05,9.50
2016,10,14,17,06,6.40
2016,10,14,17,07,7.10
2016,10,14,17,08,9.80
2016,10,14,17,09,10.80
2016,10,14,17,10,11.40
2016,10,14,17,11,5.60
2016,10,14,17,12,6.90
2016,10,14,17,13,3.60
2016,10,14,17,14,2.30
2016,10,14,17,15,2.90
2016,10,14,17,16,0.60
2016,10,14,17,17,2.50
2016,10,14,17,18,2.70
2016,10,14,17,19,2.80
2016,10,14,17,20,2.30
2016,10,14,17,21,1.80
2016,10,14,17,22,1.40
2016,10,14,17,23,4.10
2016,10,14,17,24,2.00
2016,10,14,17,25,0.50
2016,10,14,17,26,0.10
2016,10,14,17,27,0.10
2016,10,14,17,28,0.10
2016,10,14,17,29,2.50
2016,10,14,17,30,1.40
2016,10,14,17,31,1.60
2016,10,14,17,32,2.10
2016,10,14,17,33,2.30
2016,10,14,17,34,1.10
2016,10,14,17,35,3.70
2016,10,14,17,36,5.00
2016,10,14,17,37,5.30
2016,10,14,17,38,3.80
2016,10,14,17,39,5.20
2016,10,14,17,40,4.20
2016,10,14,17,41,4.80
2016,10,14,17,42,3.00
2016,10,14,17,43,3.50
2016,10,14,17,44,3.20
2016,10,14,17,45,5.10
2016,10,14,17,46,3.30
2016,10,14,17,47,2.00
2016,10,14,17,48,2.80
2016,10,14,17,49,4.10
2016,10,14,17,50,4.40
2016,10,14,17,51,10.20
2016,10,14,17,52,4.90
2016,10,14,17,53,1.90
2016,10,14,17,54,2.30
2016,10,14,17,55,1.40
2016,10,14,17,56,1.80
2016,10,14,17,57,1.70
2016,10,14,17,58,0.40
2016,10,14,17,59,0.10
2016,10,14,18,00,0.70